Flag for Canada Weather past 2 weeks in Moncton, New Brunswick, Canada

Now
64 °F

Passing clouds.


Feels Like: 64 °F
Forecast: 56 / 80 °F
Wind: 10 mph from Southwest

Location: Moncton

Current Time: Aug 28, 2015 at 10:21:18 PM

Latest Report: Aug 28, 2015 at 10:00 PM


Visibility: 15 mi

Pressure: 30.03 "Hg

Humidity: 78%

Dew point: 57 °F

Location of MonctonLocation

Historic Weather in Moncton — Graph

°F

Moncton temperature yesterday

Maximum temperature yesterday: 77 °F (at 3:00 PM)
Minimum temperature yesterday: 63 °F (at 12:00 AM)
Average temperature yesterday: 68 °F

Past Weeks' High & Low Weather Summary

 TemperatureHumidityPressure
High91 °F (Aug 18, 4:00 PM)100% (Aug 14, 7:00 AM)30.20 "Hg (Aug 14, 7:00 AM)
Low55 °F (Aug 28, 6:00 AM)36% (Aug 17, 4:00 PM)29.78 "Hg (Aug 27, 5:00 PM)
Average71 °F81%30.02 "Hg
* Reported Aug 13 9:00 PM — Aug 28 9:00 PM, Moncton, Weather by CustomWeather, © 2015

Note: Actual official high and low records may vary slightly from our data, if they occured in-between our weather recording intervals... More about our weather records

Advertising

Moncton weather history for previous 24 hours

 ConditionsComfort  
Time TempWeatherWind HumidityBarometerVisibility
9:00 PM
Fri, Aug 28
66 °FPassing clouds.8 mph73%30.02 "Hg15 mi
8:00 PM70 °FScattered clouds.6 mph64%30.00 "Hg15 mi
7:00 PM73 °FPassing clouds.10 mph53%29.98 "Hg15 mi
6:00 PM75 °FPassing clouds.10 mph50%29.98 "Hg15 mi
5:00 PM77 °FPartly sunny.14 mph44%29.98 "Hg15 mi
4:00 PM75 °FPartly sunny.13 mph50%29.98 "Hg15 mi
3:00 PM77 °FPassing clouds.13 mph47%29.97 "Hg15 mi
2:00 PM75 °FPassing clouds.12 mph50%29.98 "Hg15 mi
1:00 PM73 °FPassing clouds.12 mph57%29.98 "Hg15 mi
12:00 PM72 °FPassing clouds.16 mph61%30.00 "Hg15 mi
11:00 AM68 °FPassing clouds.14 mph69%29.99 "Hg15 mi
10:00 AM64 °FPassing clouds.15 mph73%29.98 "Hg15 mi
9:00 AM61 °FPassing clouds.10 mph83%29.98 "Hg15 mi
8:00 AM59 °FPassing clouds.10 mph88%29.97 "Hg15 mi
7:00 AM55 °FPassing clouds.12 mph100%29.95 "Hg15 mi
6:00 AM55 °FPassing clouds.8 mph100%29.92 "Hg15 mi
5:00 AM57 °FClear.10 mph94%29.91 "Hg15 mi
4:00 AM57 °FClear.8 mph94%29.90 "Hg15 mi
3:00 AM57 °FClear.10 mph94%29.89 "Hg15 mi
2:00 AM59 °FClear.10 mph88%29.89 "Hg15 mi
1:00 AM61 °FClear.10 mph83%29.88 "Hg15 mi
12:00 AM61 °FPassing clouds.9 mph88%29.87 "Hg15 mi
11:00 PM
Thu, Aug 27
63 °FPassing clouds.9 mph77%29.86 "Hg15 mi
10:00 PM68 °FPassing clouds.9 mph64%29.85 "Hg15 mi
Weather by CustomWeather, © 2015

See weather overviewHow to use our weather pages